Theta_e
357 358 357 359 358 358 355 353 353 351 357 359 358 357 365 360 355 357 356 358 359 361 362 363 365 364 362 364 365 362 361 359 358 357 359 358 357 356 354 355 356 356
360 359 361 360 360 358 355 355 355 356 353 359 360 359 360 358 355 356 358 357 359 360 362 362 362 363 362 360 363 359 358 359 359 357 357 358 357 356 354 355 354 356
357 359 358 357 357 356 356 355 355 354 356 359 360 360 357 357 357 359 359 359 359 358 361 360 360 360 357 358 362 359 357 359 358 356 358 357 356 356 356 353 353 353
357 356 355 355 355 355 354 355 353 355 359 358 359 360 359 359 355 356 359 360 360 359 360 360 356 356 356 356 360 357 357 359 358 359 357 357 357 355 354 354 353 352
355 355 355 354 356 355 354 354 351 354 353 358 361 360 361 360 358 357 355 358 361 360 359 359 356 356 356 357 359 357 355 355 358 359 357 356 358 356 353 353 354 351
355 356 357 355 354 353 354 350 352 354 355 357 359 357 356 357 359 356 353 354 358 359 356 357 356 355 357 358 358 357 354 353 354 358 356 357 355 354 352 352 353 351
354 354 354 354 354 352 351 352 355 357 357 358 360 360 358 358 359 356 355 354 357 357 356 357 357 356 357 358 359 357 356 357 357 358 357 354 355 353 352 352 353 352
353 355 354 354 353 352 350 352 354 356 356 358 357 362 361 358 360 355 354 355 354 357 358 358 358 359 357 357 357 358 356 354 355 359 359 357 354 355 354 351 351 353
356 354 354 353 352 351 351 351 354 356 358 357 357 359 361 360 359 361 360 360 362 360 360 359 361 360 360 359 358 358 357 355 354 357 359 358 354 354 353 354 352 353
355 354 353 352 351 353 352 353 353 355 358 357 357 358 359 359 361 360 357 356 362 361 361 361 360 361 361 361 360 360 359 358 358 357 357 358 356 355 354 353 351 352
355 353 351 351 354 355 355 354 351 353 356 356 358 358 359 360 359 360 357 359 362 360 359 361 360 360 361 361 360 360 360 358 357 358 357 357 357 357 357 354 352 351
352 351 349 348 350 353 354 354 354 354 354 354 357 358 360 360 359 360 359 354 359 355 358 359 360 360 361 361 360 360 360 360 360 359 357 357 357 356 357 357 355 353
347 348 349 349 349 351 354 356 355 354 353 353 355 356 357 358 360 357 356 356 356 357 360 359 359 361 360 361 361 360 359 358 357 357 357 357 356 356 356 357 357 356
345 347 349 352 351 352 355 356 356 355 354 354 354 355 355 356 356 355 358 362 362 362 362 362 362 361 361 360 360 360 359 358 357 356 355 355 355 356 356 356 357 357
344 347 351 355 356 356 356 355 353 353 353 352 353 354 355 357 357 358 356 358 359 360 360 361 361 362 363 361 359 360 361 359 360 357 356 355 354 352 353 356 357 358
351 353 356 357 357 356 357 355 353 352 352 352 353 353 355 356 357 357 358 356 357 359 360 360 359 357 357 358 358 361 360 360 360 359 358 357 355 354 354 355 356 357
356 360 361 359 361 359 358 356 354 353 353 353 353 354 355 356 357 357 356 356 353 355 355 357 357 354 353 343 343 348 361 363 361 360 361 359 357 356 355 354 354 355
361 362 361 360 360 361 358 358 357 356 357 356 355 355 357 358 357 358 358 357 357 358 357 356 357 356 342 340 341 341 350 360 362 360 359 359 358 357 356 355 355 355
359 359 358 359 357 355 362 360 359 358 358 358 358 359 359 358 358 359 359 358 358 357 358 357 356 352 338 339 339 338 341 352 359 361 359 358 357 357 357 356 357 356
359 359 357 358 360 360 360 357 356 357 358 359 358 359 358 358 359 359 360 360 358 357 358 358 357 357 337 337 336 335 337 344 356 355 358 360 359 360 358 358 356 356
360 359 358 360 360 359 357 358 354 357 357 358 358 358 357 357 359 360 361 362 360 358 357 357 357 346 337 335 334 333 334 343 356 357 357 359 359 359 358 359 359 358
357 357 363 361 359 356 353 355 355 357 359 359 358 357 358 359 360 362 362 361 362 361 359 358 360 342 337 334 332 331 334 352 356 357 356 357 358 359 359 358 358 358
357 357 356 360 362 359 357 355 354 355 357 363 361 358 357 357 359 362 362 362 362 361 358 358 360 346 333 332 330 329 336 354 355 355 354 354 355 357 357 358 358 356
355 358 353 351 359 362 360 359 359 358 357 359 358 355 354 357 358 358 359 360 359 361 360 358 359 354 331 329 327 327 343 355 355 354 354 354 355 356 356 355 355 355
358 355 356 356 354 353 356 360 360 358 358 360 357 355 357 357 356 356 357 358 360 360 357 358 360 357 330 327 326 325 339 356 354 353 352 352 352 352 354 353 353 354
353 353 353 355 353 355 356 355 358 358 358 355 358 354 355 356 357 356 356 356 358 361 360 359 358 359 357 325 325 324 328 355 356 353 351 352 353 351 350 352 352 352
Wind_Speed
1 2 5 3 5 1 1 3 4 11 7 2 2 3 2 5 7 7 7 9 10 10 9 8 8 8 7 7 7 7 7 8 8 8 9 9 8 10 9 9 8 6
4 5 4 4 1 0 1 2 4 4 7 7 1 1 1 3 4 7 10 9 10 11 10 9 9 9 9 8 8 7 7 7 8 7 8 10 9 9 10 9 8 7
6 6 5 4 3 2 2 3 5 6 5 4 4 2 3 6 3 7 7 8 9 11 11 10 10 9 10 9 8 8 8 8 9 9 8 9 9 9 8 9 9 9
4 4 3 2 1 2 3 4 4 3 1 3 6 5 4 6 4 6 3 7 8 9 10 11 10 10 10 10 9 8 9 8 9 8 8 8 9 9 9 8 8 8
4 3 3 3 3 5 6 5 2 3 6 7 6 6 5 6 4 3 6 7 7 8 9 10 10 10 10 9 10 9 9 9 9 9 9 9 9 9 9 9 8 9
1 2 2 3 4 7 6 5 5 6 6 8 8 5 8 6 6 6 6 9 9 8 9 10 10 10 10 10 10 9 10 10 10 11 11 10 10 10 9 10 10 10
1 2 4 5 7 8 7 6 7 7 6 6 7 8 7 7 6 5 4 7 9 8 9 9 10 10 10 9 10 10 9 10 10 11 11 11 10 12 11 10 10 10
4 5 7 8 8 6 7 9 6 7 7 6 9 9 7 8 8 9 9 11 11 8 8 8 9 9 10 9 10 10 11 9 10 10 11 11 11 11 12 10 10 10
5 8 9 10 10 8 8 9 6 6 7 8 8 8 8 7 7 7 7 9 7 7 7 8 8 8 9 9 9 10 11 11 10 11 11 11 12 12 12 11 12 11
7 10 10 9 8 7 8 8 6 6 7 9 9 8 8 8 7 7 5 7 7 8 8 8 8 8 9 9 9 10 10 11 10 10 11 11 12 12 12 12 12 12
7 8 7 8 6 6 7 6 7 8 6 7 8 9 9 8 8 6 8 8 7 9 9 9 10 10 10 10 10 10 10 10 11 11 10 11 11 11 11 12 13 13
8 8 7 8 7 8 8 8 7 8 9 7 7 9 9 8 8 6 5 8 7 9 10 10 10 10 11 11 11 11 10 10 10 10 11 11 12 12 12 12 12 13
7 8 7 8 9 10 8 8 8 8 9 9 7 8 9 9 8 8 8 10 9 11 10 9 10 10 11 11 11 11 11 11 11 11 11 11 11 12 12 12 13 13
7 7 7 9 9 7 9 10 9 8 8 8 8 9 10 10 9 10 10 8 7 9 9 8 9 9 10 10 10 10 10 10 10 11 11 11 11 12 12 13 13 13
8 8 9 9 9 10 10 9 8 8 7 8 9 10 9 10 10 9 9 9 9 9 8 8 8 9 9 10 10 10 9 10 10 11 11 11 11 11 12 12 12 12
13 12 10 10 10 10 9 8 8 8 8 9 10 10 10 9 10 11 10 9 10 10 11 10 10 10 11 9 7 7 9 9 10 10 11 10 10 11 12 11 13 13
9 9 8 9 9 10 9 9 9 9 10 11 10 10 11 10 10 11 11 10 10 12 13 12 11 11 13 11 11 10 8 9 9 9 10 10 11 11 11 12 12 13
6 7 8 9 9 10 10 10 10 10 10 10 10 11 11 10 10 11 11 11 11 11 12 12 11 12 12 14 13 13 12 11 10 9 10 10 10 11 10 11 12 12
7 7 9 9 8 10 9 9 10 11 11 10 11 10 10 11 11 11 11 10 10 11 11 12 11 9 12 13 14 14 14 13 10 10 9 10 10 11 11 11 10 10
7 8 9 9 7 8 8 10 10 10 10 10 9 10 10 10 11 12 11 11 11 11 11 11 12 9 12 12 12 13 14 13 12 12 10 10 10 10 10 10 10 10
7 7 7 6 6 5 7 8 11 11 11 10 10 10 11 11 10 10 10 10 11 11 10 11 10 10 12 14 14 14 13 12 11 11 11 11 11 11 11 11 11 11
7 7 7 7 5 6 9 10 11 12 11 11 10 10 10 10 9 9 10 10 10 10 10 11 10 11 12 13 14 14 14 10 11 12 12 11 11 11 11 11 11 12
7 7 7 7 8 8 10 10 11 10 10 9 9 10 11 11 10 9 9 9 10 10 11 10 9 10 14 13 13 14 10 10 11 11 11 12 12 11 11 11 12 13
8 8 7 8 8 7 8 9 9 7 8 10 11 11 12 11 10 10 10 10 10 10 10 10 10 9 15 14 14 14 12 11 11 11 12 12 12 13 12 12 12 12
8 7 7 6 7 9 8 9 10 10 10 7 8 10 11 10 10 10 10 10 10 10 11 12 10 9 13 14 14 14 13 11 11 11 12 12 11 12 11 11 12 11
8 9 7 6 9 9 8 9 9 9 8 9 8 9 10 9 9 10 10 10 9 9 9 10 11 10 9 14 14 14 15 12 11 11 12 12 12 11 11 11 12 12
Wind_Direction
193 216 229 229 230 163 288 329 336 317 294 303 325 313 78 147 196 226 207 185 190 193 183 185 183 187 193 189 192 202 200 201 208 192 202 205 210 215 216 214 221 231
209 214 221 234 224 151 356 360 314 280 291 286 322 249 238 144 218 213 201 189 187 195 184 184 187 191 195 194 194 201 203 203 210 205 200 205 216 218 219 220 224 229
209 212 231 251 284 0 352 306 263 250 262 292 296 332 316 280 253 215 195 193 193 194 188 192 192 193 199 200 193 203 204 206 213 211 207 208 216 218 219 219 219 221
243 256 260 265 226 213 216 215 231 285 258 226 252 240 215 240 174 232 222 199 201 194 192 196 197 196 200 198 194 208 205 206 212 212 210 212 215 220 217 222 227 230
296 293 273 245 221 208 219 190 132 181 210 228 242 239 236 235 231 318 256 199 210 197 194 199 198 203 199 201 198 208 206 210 207 209 213 214 216 220 226 225 224 229
291 296 272 257 240 232 212 182 187 203 215 241 241 234 235 215 215 185 231 245 195 206 203 198 199 204 200 200 203 209 210 213 208 204 210 213 218 218 221 222 225 229
265 257 248 237 233 229 227 210 193 195 217 238 246 238 235 225 201 212 214 270 236 196 208 198 202 204 203 202 204 209 217 219 218 205 212 215 218 225 226 225 224 232
208 219 213 213 225 239 249 238 206 198 207 222 236 233 230 233 234 172 212 218 227 208 208 204 199 209 210 206 207 209 214 214 216 211 212 220 219 219 225 232 224 222
217 213 211 212 216 221 227 234 226 204 208 218 228 231 224 231 228 242 220 208 215 218 213 210 204 206 213 215 213 210 215 220 214 210 212 217 218 220 223 225 229 225
221 223 220 216 214 222 220 222 237 234 218 218 223 230 232 227 230 218 238 245 216 210 204 210 208 209 209 214 214 214 216 221 227 219 215 219 225 225 224 226 227 229
227 239 239 244 227 231 236 236 232 233 246 235 227 225 224 219 222 210 219 225 221 215 207 207 211 210 213 214 214 215 217 221 224 227 226 226 227 228 230 230 228 231
226 242 243 247 254 255 253 242 225 217 220 233 239 235 224 219 215 212 216 223 220 239 225 210 209 213 213 218 217 216 217 220 224 228 230 232 231 232 231 230 231 228
239 237 236 241 238 241 245 232 221 214 215 219 222 232 236 228 220 210 228 222 215 224 227 221 213 215 215 215 221 223 222 221 224 225 229 232 235 236 236 237 237 236
242 241 244 239 237 240 236 228 220 217 211 209 215 221 225 231 229 224 224 228 229 224 226 227 225 222 223 224 224 228 230 229 226 228 229 233 236 235 236 237 237 239
250 245 234 226 229 234 231 227 224 222 219 212 209 214 219 221 225 227 229 224 222 230 227 225 225 224 222 220 217 219 225 228 231 230 230 231 232 243 243 240 243 242
212 216 211 217 224 234 232 226 223 221 220 220 217 214 216 216 219 222 220 220 221 217 217 212 219 227 230 239 260 229 214 221 225 231 235 238 238 236 241 241 242 244
213 211 216 222 217 227 226 222 226 223 218 216 215 215 216 214 214 220 218 216 221 223 222 220 222 226 213 217 227 242 234 215 220 227 232 235 235 237 241 243 248 249
241 230 222 219 225 228 229 225 224 222 220 217 215 214 216 212 211 216 214 215 220 222 223 222 224 227 193 202 218 219 226 226 224 226 226 226 231 235 237 241 243 246
219 240 241 232 222 234 233 232 226 224 222 218 215 217 217 217 216 216 215 216 221 224 226 226 232 207 182 198 207 208 213 226 235 233 231 231 232 232 236 239 245 248
231 231 241 246 241 234 237 244 243 230 231 229 227 221 220 220 220 221 218 214 220 224 229 234 234 218 185 198 207 207 208 210 235 242 236 234 234 237 240 242 241 245
231 230 245 254 257 267 268 256 248 236 231 230 230 226 222 222 219 218 218 218 220 222 227 229 232 207 188 199 208 210 209 208 232 237 240 239 239 239 240 238 240 242
248 235 209 209 213 214 229 229 239 243 232 230 230 230 227 224 222 221 219 221 220 222 226 231 231 192 194 196 204 210 206 215 230 238 241 243 244 242 241 242 243 245
272 251 246 219 194 219 232 239 237 243 251 236 235 239 232 227 222 219 220 219 219 223 227 230 236 186 185 193 199 206 202 225 232 238 242 245 247 247 248 246 246 247
292 295 286 280 268 224 223 234 238 230 245 241 229 229 235 233 229 227 223 225 223 221 220 231 237 203 180 189 194 191 200 224 234 234 240 243 247 247 248 249 249 246
307 303 290 280 263 266 266 263 247 237 233 239 258 251 242 235 233 233 231 228 229 232 229 230 235 220 180 189 191 191 199 227 234 239 240 242 245 248 246 250 252 243
306 311 300 290 286 282 270 252 252 247 238 238 237 246 243 236 232 235 234 233 226 224 231 229 231 236 201 185 192 195 200 221 235 238 244 246 250 254 256 253 254 256